Twin Falls, ID

10:35 AM MDT on April 26, 2018 (GMT -0600)
Joslin Field-Magic Valley Regional

Weather History for KTWF - October, 2011

Change the Weather History Date:

Monday, October 10, 2011

  Actual Average Record
Temperature  
Mean Temperature 53 °F -  
Max Temperature 66 °F 66 °F 92 °F (2015)
Min Temperature 39 °F 39 °F 18 °F (1985)
Degree Days  
Heating Degree Days 12 13  
Month to date heating degree days 107 109  
Since 1 July heating degree days 119 270  
Cooling Degree Days 0 0  
Month to date cooling degree days 20 0  
Year to date cooling degree days 736 678  
Growing Degree Days 2 (Base 50)    
Moisture  
Dew Point 39 °F    
Average Humidity 58    
Maximum Humidity 86    
Minimum Humidity 30    
Precipitation  
Precipitation 0.22 in 0.03 in 0.38 in (1997)
Month to date precipitation 0.89 0.22  
Year to date precipitation 8.02 7.67  
Sea Level Pressure  
Sea Level Pressure 29.84 in    
Wind  
Wind Speed 9 mph (South)    
Max Wind Speed 22 mph    
Max Gust Speed 30 mph    
Visibility 9 miles    
Events Rain    
T = Trace of Precipitation, MM = Missing Value Source: NWS Daily Summary

Daily Weather History Graph

Daily Weather History Graph

Search for Another Location

Airport or City:

Astronomy

Oct. 10, 2011 Rise Set
Actual Time 7:44 AM MDT 7:04 PM MDT
Civil Twilight 7:16 AM MDT 7:32 PM MDT
Nautical Twilight 6:44 AM MDT 8:04 PM MDT
Astronomical Twilight 6:11 AM MDT 8:37 PM MDT
Moon 6:09 PM MDT (10/10) 6:29 AM MDT (10/10)
Length of Visible Light 12h 15m
Length of Day
11h 19m
Waxing Gibbous, 98% of the Moon is Illuminated
Oct 10
Waxing Gibbous
Oct 11
Full
Oct 19
Last Quarter
Oct 26
New
Nov 2
First Quarter

Hourly Weather History & Observations

Time (MDT) Temp. Windchill Dew Point Humidity Pressure Visibility Wind Dir Wind Speed Gust Speed Precip Events Conditions
12:53 AM 45.0 °F 41.2 °F 37.0 °F 74% 29.88 in 10.0 mi South 6.9 mph - N/A   Clear
1:53 AM 39.0 °F 34.8 °F 34.0 °F 82% 29.88 in 10.0 mi SE 5.8 mph - N/A   Clear
2:53 AM 46.0 °F 43.9 °F 35.1 °F 66% 29.86 in 10.0 mi ESE 4.6 mph - N/A   Clear
3:53 AM 48.9 °F - 36.0 °F 61% 29.83 in 10.0 mi South 10.4 mph - N/A   Clear
4:53 AM 50.0 °F - 34.0 °F 54% 29.82 in 10.0 mi South 10.4 mph - N/A   Clear
5:53 AM 48.0 °F - 33.1 °F 56% 29.85 in 10.0 mi Calm Calm - N/A   Clear
7:53 AM 46.9 °F - 34.0 °F 61% 29.86 in 10.0 mi East 4.6 mph - N/A   Partly Cloudy
8:53 AM 50.0 °F - 34.0 °F 54% 29.86 in 10.0 mi ESE 4.6 mph - N/A   Clear
9:53 AM 59.0 °F - 33.8 °F 39% 29.91 in 10.0 mi South 12.7 mph 20.7 mph N/A   Partly Cloudy
10:53 AM 63.0 °F - 30.9 °F 30% 29.81 in 10.0 mi South 12.7 mph - N/A   Partly Cloudy
11:53 AM 64.0 °F - 33.1 °F 31% 29.79 in 10.0 mi South 15.0 mph 20.7 mph N/A   Mostly Cloudy
12:53 PM 63.0 °F - 34.0 °F 34% 29.78 in 10.0 mi South 13.8 mph - N/A   Overcast
1:53 PM 64.0 °F - 33.1 °F 31% 29.78 in 10.0 mi SSW 6.9 mph - N/A   Overcast
2:23 PM 60.8 °F - 39.2 °F 45% 29.88 in 10.0 mi WNW 20.7 mph 27.6 mph N/A   Overcast
2:53 PM 57.9 °F - 39.9 °F 51% 29.81 in 10.0 mi West 20.7 mph 28.8 mph N/A   Overcast
3:53 PM 55.0 °F - 44.1 °F 67% 29.82 in 10.0 mi West 12.7 mph - 0.00 in Rain Light Rain
4:53 PM 51.1 °F - 45.0 °F 80% 29.83 in 4.0 mi South 11.5 mph - 0.03 in Rain Rain
6:00 PM 50.0 °F - 46.4 °F 87% 29.92 in 2.5 mi Calm Calm - 0.02 in Rain Rain
6:07 PM 50.0 °F - 46.4 °F 87% 29.92 in 3.0 mi SSE 3.5 mph - 0.03 in Rain Light Rain
6:53 PM 50.0 °F - 46.9 °F 89% 29.84 in 3.0 mi SSE 5.8 mph - 0.04 in Rain Light Rain
7:53 PM 51.1 °F - 45.0 °F 80% 29.82 in 10.0 mi South 8.1 mph - 0.01 in   Overcast
8:53 PM 51.1 °F - 45.0 °F 80% 29.81 in 10.0 mi South 8.1 mph - N/A   Overcast
9:53 PM 50.0 °F - 43.0 °F 77% 29.78 in 10.0 mi South 10.4 mph - N/A   Clear
10:53 PM 52.0 °F - 44.1 °F 74% 29.76 in 10.0 mi South 15.0 mph - N/A   Overcast
11:53 PM 51.1 °F - 45.0 °F 80% 29.81 in 6.0 mi WSW 11.5 mph - 0.03 in Rain Rain